Location: Liberec
(50.7830°N, 15.0500°E)
Time: 02:28:01
(UTC+02:00)

ISS - Visible Passes

Search period start: 17 October 2019 00:00
Search period end: 27 October 2019 00:00
Orbit: 411 x 421 km, 51.6° (Epoch: 16 October)

Date Brightness Start Highest point End Pass type
(mag) Time Alt. Az. Time Alt. Az. Time Alt. Az.
24 Oct -0.8 06:50:41 10° S 06:52:52 16° SE 06:55:02 10° E visible
25 Oct -0.6 06:03:42 10° SSE 06:04:31 11° SE 06:05:20 10° ESE visible
26 Oct -2.0 06:49:05 10° SSW 06:52:08 31° SSE 06:55:10 10° E visible
